Regional Weather Roundup
Issued by NWS

Home | Current Version | Previous Version | Graphics & Text | Print | Product List | Glossary On
Versions: 1 2 3 4 5 6 7 8 9 10 11 12 13 14 15 16 17 18 19 20 21 22 23 24 25 26 27 28 29 30 31 32 33 34 35 36 37 38 39 40 41 42 43 44 45 46 47 48 49 50
000
ASUS43 KDMX 290306
RWRIA

WEATHER ROUNDUP FOR IOWA
NATIONAL WEATHER SERVICE DES MOINES IA
1000 PM CDT TUE MAR 28 2017

NOTE: "FAIR" INDICATES FEW OR NO CLOUDS BELOW 12,000 FEET WITH NO
SIGNIFICANT WEATHER AND/OR OBSTRUCTIONS TO VISIBILITY.

* - THESE STATIONS ARE NOT NWS STATIONS...THUS NOT UNDER NWS
QUALITY CONTROL.  THEY ALSO DO NOT REPORT WEATHER SUCH
AS PRECIPITATION OR FOG.

IAZ001>003-012>014-020>022-031>034-043>046-290400-
   NORTHWEST IOWA

CITY           SKY/WX    TMP DP  RH WIND       PRES   REMARKS
CARROLL *      MOCLDY    45  45 100 E6        30.13R
CHEROKEE *     CLOUDY    45  42  90 CALM      30.14F
DENISON *      MOCLDY    46  43  87 E6        30.14R
LE MARS *      CLOUDY    50  43  76 SE5       30.14F
ORANGE CITY *  MOCLDY    48  45  87 CALM      30.15S
SHELDON *      CLOUDY    46  41  81 NE7       30.13S
SIOUX CITY     CLOUDY    48  42  80 E5        30.13S
SPENCER        MOCLDY    46  41  82 NE7       30.15R
STORM LAKE *   CLOUDY    43  39  87 CALM      30.13F
$$

IAZ055>058-069>071-079>083-090>094-290400-
   SOUTHWEST IOWA

CITY           SKY/WX    TMP DP  RH WIND       PRES   REMARKS
ATLANTIC *     CLOUDY    48  43  81 NE8       30.10S
AUDUBON *      CLOUDY    46  43  87 E6        30.13R
CLARINDA *     CLOUDY    50  45  81 E10G16    30.09F
COUNCIL BLFS * CLOUDY    48  45  87 NE12      30.08F
CRESTON *      CLOUDY    48  45  87 E13       30.09F
HARLAN  *      CLOUDY    48  45  87 NE6       30.14S
LAMONI         CLOUDY    50  45  83 NE10      30.08F
RED OAK *      CLOUDY    50  45  81 NE12      30.08F
SHENANDOAH *   CLOUDY    50  45  81 NE13      30.07S
$$

IAZ047>049-059>061-072>074-084-290400-
   CENTRAL IOWA

CITY           SKY/WX    TMP DP  RH WIND       PRES   REMARKS
AMES           CLOUDY    45  43  93 CALM      30.14S
ANKENY *       CLOUDY    50  43  76 E8        30.15R
BOONE *        CLOUDY    43  43 100 E6        30.13S
CHARITON *     CLOUDY    50  45  81 E9        30.12S
DES MOINES     CLOUDY    51  43  74 E8        30.14R
GRINNELL*      CLOUDY    47  45  90 E5        30.16F
MARSHALLTOWN   CLOUDY    43  41  93 E6        30.15S
NEWTON *       CLOUDY    48  45  87 E7        30.14S
PELLA *        CLOUDY    48  46  93 E6        30.16R
PERRY *        CLOUDY    48  43  81 E10       30.13F
$$

IAZ004>006-015-016-023>025-035-036-290400-
   NORTH CENTRAL IOWA

CITY           SKY/WX    TMP DP  RH WIND       PRES   REMARKS
ALGONA *       MOCLDY    50  41  71 E7        30.16R
CLARION *      MOCLDY    46  46 100 S6        30.16S
ESTHERVILLE    CLOUDY    45  42  89 E5        30.16R
FORT DODGE *   CLOUDY    46  39  76 SE3       30.15F
MASON CITY     CLOUDY    46  36  68 E7        30.18R
FOREST CITY *    N/A     46  36  66 E3        30.17R
WEBSTER CITY * CLOUDY    43  41  93 E3        30.13F
IOWA FALLS *     N/A     45  42  88 CALM      30.18R
$$

IAZ007>011-017>019-026>030-037>042-050>054-066-290400-
   NORTHEAST IOWA

CITY           SKY/WX    TMP DP  RH WIND       PRES   REMARKS
CEDAR RAPIDS   CLOUDY    40  38  93 E8        30.16F WCI  34
CHARLES CITY * CLOUDY    46  39  76 SE6       30.17F
CLINTON *      CLEAR     42  40  92 CALM      30.19R
DECORAH *      PTCLDY    46  39  76 CALM      30.17F
DUBUQUE        CLEAR     40  38  93 CALM      30.17S
MONTICELLO *   CLEAR     39  37  93 CALM      30.18S
OELWEIN *      CLOUDY    43  41  93 SE5       30.18S
WATERLOO       CLOUDY    43  38  82 E3        30.17S
$$

IAZ064-065-067-068-078-290400-
   EAST CENTRAL IOWA

CITY           SKY/WX    TMP DP  RH WIND       PRES   REMARKS
DAVENPORT      CLEAR     41  38  89 S3        30.18S
IOWA CITY      CLOUDY    46  39  76 E6        30.19S
MUSCATINE *    CLEAR     46  41  81 E8        30.18F
QUAD CITIES    PTCLDY    40  36  86 CALM      30.17S
$$

IAZ062-063-075>077-085>089-095>099-290400-
   SOUTHEAST IOWA

CITY           SKY/WX    TMP DP  RH WIND       PRES   REMARKS
BURLINGTON     CLOUDY    49  44  83 NE13      30.15F
FAIRFIELD *    CLOUDY    48  45  87 E10       30.15S
FORT MADISON * CLOUDY    48  48 100 E10       30.16S
KEOKUK *       CLOUDY    50  45  81 NE12      30.13S
OSKALOOSA *    CLOUDY    47  46  94 E8        30.15S
CENTERVILLE *  CLOUDY    48  46  93 E10       30.13S
OTTUMWA        CLOUDY    49  47  93 E8        30.14S
WASHINGTON *   CLOUDY    48  45  87 E8        30.18R
$$

ABBREVIATIONS USED IN REMARKS
   TC - TEMPERATURES IN CELSIUS
  WCI - WIND CHILL INDEX
   HX - HEAT INDEX
  VSB - VISIBILITY
$$





USA.gov is the U.S. government's official web portal to all federal, state and local government web resources and services.